Location: Riedlingen
(48.1569°N, 9.4757°E)
Time: 04:31:20
(UTC+02:00)

ISS - Pass Details

Date: 14 May 2021
Orbit: 417 x 422 km, 51.6° (Epoch: 15 June)

Event Time Altitude Azimuth Distance (km) Brightness Sun altitude
Rises 04:25:54 0° 292° (WNW) 2,376 -0.2 -11.2°
Reaches altitude 10° 04:28:02 10° 287° (WNW) 1,509 -1.2 -10.9°
Maximum altitude 04:31:20 52° 210° (SSW) 530 -3.6 -10.5°
Drops below altitude 10° 04:34:38 10° 133° (SE) 1,504 -0.9 -10.1°
Sets 04:36:45 0° 128° (SE) 2,366 0.2 -9.9°
